Regional Weather Roundup
Issued by NWS

Home | Current Version | Previous Version | Graphics & Text | Print | Product List | Glossary On
Versions: 1 2 3 4 5 6 7 8 9 10 11 12 13 14 15 16 17 18 19 20 21 22 23 24 25 26 27
000
ASUS45 KBOU 290607
RWRCO

WEATHER ROUNDUP FOR COLORADO
NATIONAL WEATHER SERVICE DENVER/BOULDER CO
1200 AM MDT FRI APR 29 2016

NOTE: "FAIR" INDICATES FEW OR NO CLOUDS BELOW 12000 FEET WITH NO
SIGNIFICANT WEATHER AND/OR OBSTRUCTIONS TO VISIBILITY.

COZ001>005-013-030-031-290700-
...NORTHWEST COLORADO...

CITY           SKY/WX    TMP DP  RH WIND       PRES   REMARKS
CRAIG          CLOUDY    37  34  89 SE8       29.91F
HAYDEN         CLOUDY    36  30  80 E8        29.92S
MEEKER         CLOUDY    40  35  83 E8        29.89S
MOUNT WERNER   NOT AVBL
STEAMBOAT SPGS CLOUDY    32  32  99 CALM      29.94R
WALDEN         FAIR      28  25  86 N5        29.95F WCI  23
$$

COZ006>008-011-290700-
...WEST CENTRAL VALLEYS...

CITY           SKY/WX    TMP DP  RH WIND       PRES   REMARKS
GRAND JUNCTION FAIR      43  38  82 CALM      29.80S
MONTROSE       FAIR      44  37  76 SE12      29.83F
EAGLE          FAIR      39  37  93 W6        29.90F
RIFLE          RAIN      44  40  85 NW5       29.87R
DELTA          NOT AVBL
NUCLA          NOT AVBL
$$

COZ017>023-064>068-290700-
...SOUTHWEST COLORADO...

CITY           SKY/WX    TMP DP  RH WIND       PRES   REMARKS
DURANGO        CLOUDY    46  22  38 CALM      29.87R
CORTEZ         FAIR      35  32  88 E8        29.85R WCI  29
PAGOSA SPRINGS CLOUDY    43  23  46 W5        29.90R
TELLURIDE      CLOUDY    32  30  92 E14       29.91F WCI  22
WOLF CREEK PAS NOT AVBL
$$

COZ009-010-012-014-032>034-037-058>063-290700-
...CENTRAL COLORADO...

CITY           SKY/WX    TMP DP  RH WIND       PRES   REMARKS
ASPEN          FAIR      35  29  78 NE3       29.85F
BUENA VISTA    LGT SNOW  31  30  96 SE6       30.00R VSB 1   WCI  25
COPPER MTN     NOT AVBL
BERTHOUD PASS  HAZE      19   9  63 E20       30.03S VSB 1/2 WCI   4
COTTONWOOD PAS NOT AVBL
GUNNISON       FAIR      37  30  75 CALM      29.91R
KREMMLING      MOCLDY    36  32  87 CALM      29.93F
LEADVILLE      CLOUDY    26  26 100 S8        29.96F FOG     WCI  18
MONARCH PASS   CLOUDY    21  19  93 NE18      30.09F WCI   6
SALIDA         CLOUDY    33  32  96 SE6       30.07R WCI  28
SUNLIGHT       SNOW      32  30  93 CALM      29.98S VSB 1/2
WILKERSON PASS LGT SNOW  21  19  93 E8        30.05S VSB 3/4 WCI  12
$$

COZ069>075-290700-
...SAN LUIS VALLEY/SANGRE DE CRISTO MOUNTAINS...

CITY           SKY/WX    TMP DP  RH WIND       PRES   REMARKS
ALAMOSA        CLOUDY    37  36  96 E10       29.90S
LA VETA PASS   LGT SNOW  27  23  86 MISG      30.01S VSB 3/4
SAGUACHE       LGT RAIN  34  32  93 SE3       29.94R
$$

COZ035-036-038>040-290700-
...NORTHERN COLORADO FRONT RANGE...

CITY           SKY/WX    TMP DP  RH WIND       PRES   REMARKS
DENVER INTL AP FLURRIES  37  32  82 E12       30.04R
DMNS CITY PARK   N/A     37  36  96 E13       30.04S
AURORA         LGT RAIN  36  36  99 E9        30.04F
FRONT RANGE AP NOT AVBL
ERIE MUNI ARPT DRIZZLE   38  37  97 E5        30.05S
BOULDER MUN AP DRIZZLE   36  36 100 E5        30.04S
CENTENNIAL     DRIZZLE   36  33  89 SE9       30.03S
BROOMFIELD     LGT RAIN  36  36 100 CALM      30.05R
FORT COLLINS   MOCLDY    37  34  87 SE9       30.05S
LONGMONT       LGT RAIN  39  37  93 E6        30.06S
$$

COZ041-046-047-076>085-087-088-290700-
...PIKES PEAK/PALMER DIVIDE AND SOUTHERN FOOTHILLS...

CITY           SKY/WX    TMP DP  RH WIND       PRES   REMARKS
COLO. SPRINGS  LGT SNOW  33  31  92 N5        30.04F FOG     WCI  29
A. F. ACADEMY  LGT SNOW  32  32 100 SW2       30.03S FOG
SCHRIEVER AFB  NOT AVBL
ELLICOTT       NOT AVBL
FALCON         LGT SNOW  32  32  99 MISG      30.04F
FORT CARSON    FLURRIES  32  32 100 MISG      30.02F
LIMON          LGT RAIN  35  34  96 NE12      30.04S WCI  27
MONUMENT HILL  LGT SNOW  32  30  93 E6        30.04S WCI  26
TRINIDAD       LGT RAIN  38  36  92 E10       30.00R
$$

COZ042>045-048>051-090-091-290700-
...NORTHEAST COLORADO...

CITY           SKY/WX    TMP DP  RH WIND       PRES   REMARKS
GREELEY ARPT   CLOUDY    37  36  93 E9        30.06S
AKRON          CLOUDY    37  34  89 E10       30.07S
BURLINGTON     CLOUDY    41  36  82 NE16      30.04F
WRAY           NOT AVBL
STERLING       CLOUDY    39  34  81 E8        30.07S
HOLYOKE        NOT AVBL
FORT MORGAN    CLOUDY    38  33  83 E8        30.07S
$$

COZ086-089-092>099-290700-
...SOUTHEAST COLORADO...

CITY           SKY/WX    TMP DP  RH WIND       PRES   REMARKS
PUEBLO         LGT RAIN  42  38  85 W8        30.02S
LA JUNTA       LGT RAIN  44  40  85 E14       30.01S
LAMAR          LGT RAIN  44  42  93 E13       29.99F
SPRINGFIELD      N/A     42  40  92 NE15      29.99R
$$




USA.gov is the U.S. government's official web portal to all federal, state and local government web resources and services.